User: anonymous   Login
Location: Unspecified
(0.0000°N, 0.0000°E)
Time: 15:28:43
(UTC+00:00)
Language:

ETS 8 - Orbit

View from above orbital plane
View from above orbital plane
View from above satellite
View from above satellite

Ground track
Ground track

The orbit data is extracted from the following two-line orbital elements,

1 29656U 06059A   16274.73678552 -.00000258  00000-0  00000+0 0  9996
2 29656   5.0869  60.6400 0003671 119.6982 240.5213  1.00273245 35882
Epoch (UTC): 30 September 2016 17:40:58
Eccentricity: 0.0003671
inclination: 5.0869°
perigee height: 35770 km
apogee height: 35801 km
right ascension of ascending node: 60.6400°
argument of perigee: 119.6982°
revolutions per day: 1.00273245
mean anomaly at epoch: 240.5213°
orbit number at epoch: 3588

The dashed part of the orbit path shows where the satellite is in the earth's shadow,  

DLR